Location: UFOWorks Observatory
(42.1050°N, 72.2350°W)
Time: 21:20:02
(UTC-05:00)

ISS - Visible Passes

Search period start: 20 January 2018 00:00
Search period end: 30 January 2018 00:00
Orbit: 402 x 407 km, 51.6° (Epoch: 21 January)

Date Brightness Start Highest point End Pass type
(mag) Time Alt. Az. Time Alt. Az. Time Alt. Az.
23 Jan -1.5 18:30:11 10° S 18:31:11 14° SSE 18:31:11 14° SSE visible
24 Jan -1.4 19:13:01 10° SW 19:14:09 20° SW 19:14:09 20° SW visible
25 Jan -3.3 18:20:56 10° SSW 18:24:00 40° SE 18:24:21 38° ESE visible
26 Jan -2.2 17:29:16 10° S 17:31:49 21° SE 17:34:22 10° E visible
26 Jan -2.2 19:04:55 10° WSW 19:07:07 34° WNW 19:07:07 34° WNW visible
27 Jan -3.9 18:12:26 10° WSW 18:15:42 84° NW 18:17:08 31° NE visible
28 Jan -2.1 18:57:08 10° W 18:59:44 27° NNW 18:59:44 27° NNW visible
29 Jan -2.8 18:04:22 10° W 18:07:28 40° NNW 18:09:36 17° NE visible
